x

Tanner Bank - 121nm West Of San Diego, Ca (46047) Wave Buoy

12:50am - Sat 6th Feb 2016 All times are PST. -8 hours from GMT.

  • Sig Wave height 8.9ft
  • Swell Direction
  • Peak Period 15s
  • Average Period 9s
  • Wind
    16mph, 20mph gusts
  • Sea Temp 59°f
  • Air Temp 60°f
  • Sea Pressure 1024.7mb
  • Tanner Bank - 121nm West Of San Diego, Ca
  • Tanner Bank - 121nm West Of San Diego, Ca

More Historic Weather Station data

Upgrade to MSW Pro to gain access to the past 30 days of data for over 8000 Wavebouys and Weather Stations around the globe.

Join Pro

Comparision Forecast

View Surf forecast
   
Sat 02/06 12:50am 9ft 15s 9s 16 20 mph 1024.7mb 59f 60f
Fri 02/05 11:50pm 8ft 15s 9s 18 20 mph 1024.8mb 59f 60f
10:50pm 9.5ft 16s 10s 16 18 mph 1024.6mb 59f 60f
9:50pm 9.5ft 16s 10s 16 18 mph 1024.4mb 59f 60f
8:50pm 9ft 15s 10s 16 18 mph 1024.4mb 59f 60f
7:50pm 9ft 16s 10s 13 16 mph 1024.5mb 59f 60f
6:50pm 9.5ft 16s 11s 9 11 mph 1024.6mb 59f 60f
5:50pm 10ft 15s 11s 7 9 mph 1024.6mb 60f 59f
4:50pm 9ft 13s 11s 7 11 mph 1024.4mb 60f 60f
3:50pm 10ft 15s 11s 11 13 mph 1024.5mb 60f 60f
2:50pm 10.5ft 16s 12s 9 11 mph 1024.5mb 60f 60f
1:50pm 10.5ft 16s 12s 7 9 mph 1024.6mb 60f 60f
12:50pm 10.5ft 17s 11s 7 9 mph 1025.4mb 60f 60f
11:50am 12ft 16s 11s 4 7 mph 1026.1mb 60f 60f
10:50am 12.5ft 16s 12s 4 7 mph 1026.6mb 59f 60f
9:50am 15ft 17s 13s 4 7 mph 1026.3mb 59f 59f
8:50am 15ft 17s 13s 7 9 mph 1025.8mb 59f 59f
7:50am 12.5ft 17s 12s 9 11 mph 1025.3mb 59f 58f
6:50am 13.5ft 17s 12s 11 13 mph 1025.1mb 59f 58f
5:50am 14.5ft 17s 13s 11 16 mph 1024.8mb 59f 58f
4:50am 12.5ft 17s 11s 11 13 mph 1024.5mb 59f 58f
3:50am 15.5ft 17s 13s 11 16 mph 1024.3mb 59f 58f
2:50am 17ft 19s 14s 11 16 mph 1024.4mb 59f 58f
1:50am 13ft 19s 11s 13 16 mph 1024.5mb 59f 58f
12:50am 14ft 17s 12s 13 18 mph 1024.4mb 59f 57f
Thu 02/04 11:50pm 12ft 17s 11s 16 22 mph 1024.6mb 59f 58f
10:50pm 14ft 19s 12s 18 22 mph 1024.8mb 59f 58f
9:50pm 11.5ft 19s 11s 16 20 mph 1024.7mb 59f 58f
8:50pm 12.5ft 19s 12s 16 18 mph 1024.6mb 59f 58f
7:50pm 14.5ft 19s 14s 16 18 mph 1024.2mb 59f 58f
6:50pm 12ft 19s 12s 13 16 mph 1024mb 59f 58f
5:50pm 10.5ft 19s 11s 16 20 mph 1023.8mb 59f 58f
4:50pm 10ft 19s 11s 16 20 mph 1023.7mb 59f 58f
3:50pm 9ft 19s 10s 16 18 mph 1023.9mb 59f 58f
2:50pm 10ft 19s 11s 16 18 mph 1024.1mb 59f 58f
1:50pm 7ft 19s 10s 16 18 mph 1024.7mb 59f 58f
12:50pm 8ft 19s 10s 13 16 mph 1025.4mb 59f 57f
11:50am 7ft 19s 9s 13 16 mph 1026.3mb 59f 57f
10:50am 6.5ft 19s 9s 13 16 mph 1027.1mb 59f 57f
9:50am 6ft 21s 8s 13 16 mph 1027.3mb 59f 57f
8:50am 5.5ft 19s 7s 13
mph
1026.7mb 58f 57f
7:50am 5.5ft 16s 7s 13 16 mph 1026.6mb 58f 57f
6:50am 5ft 19s 6s 13 16 mph 1026.2mb 58f 56f
5:50am 4.5ft 16s 6s 13 16 mph 1026mb 58f 57f
4:50am 5ft 17s 6s 13 16 mph 1026.2mb 58f 56f
3:50am 5ft 16s 6s 13 16 mph 1026.3mb 59f 56f
2:50am 4.5ft 9s 5s 18 20 mph 1027mb 59f 56f
1:50am 4.5ft 17s 6s 16 18 mph 1027.6mb 59f 56f
12:50am 4.5ft 12s 6s 16 18 mph 1027.6mb 59f 56f
Wed 02/03 11:50pm 4.5ft 17s 6s 16 18 mph 1028.1mb 59f 57f
10:50pm 4.5ft 17s 6s 13 18 mph 1028.1mb 59f 57f
9:50pm 4.5ft 8s 6s 13 16 mph 1028.1mb 59f 56f
8:50pm 4.5ft 9s 7s 16 18 mph 1028mb 59f 57f
7:50pm 4ft 17s 7s 13 16 mph 1027.4mb 59f 57f
6:50pm 4.5ft 17s 7s 11 16 mph 1027.3mb 59f 57f
5:50pm 4ft 9s 7s 9 11 mph 1026.5mb 59f 57f
4:50pm 4.5ft 9s 7s 7 9 mph 1026.4mb 59f 58f
3:50pm 4ft 9s 6s 7 9 mph 1026mb 59f 58f
2:50pm 4.5ft 12s 6s 9 11 mph 1026.1mb 59f 57f
1:50pm 4.5ft 12s 6s 9 11 mph 1026.4mb 59f 57f
12:50pm 4.5ft 9s 6s 9 11 mph 1026.8mb 59f 57f
11:50am 4.5ft 14s 6s 9 11 mph 1027.3mb 59f 57f
10:50am 4.5ft 8s 6s 11 13 mph 1027.8mb 59f 57f
9:50am 5ft 6s 6s 11
mph
1027.6mb 59f 56f
8:50am 5ft 6s 6s 11 13 mph 1026.9mb 58f 56f
7:50am 5.5ft 7s 6s 11 13 mph 1026.4mb 58f 56f
6:50am 6ft 6s 6s 13 18 mph 1025.4mb 58f 56f
5:50am 6ft 7s 6s 16 20 mph 1024.6mb 58f 56f
4:50am 6.5ft 7s 6s 18 20 mph 1024mb 58f 56f
3:50am 6ft 7s 6s 18 22 mph 1023.7mb 59f 56f
2:50am 6.5ft 11s 6s 20 22 mph 1024mb 59f 56f
1:50am 6.5ft 6s 6s 22 25 mph 1023.7mb 59f 57f
12:50am 7.5ft 7s 6s 22 27 mph 1023.6mb 59f 57f
Tue 02/02 11:50pm  -   -   -  22 27 mph 1023.9mb 59f 57f
10:50pm 7ft 12s 6s 22 27 mph 1024.1mb 59f 58f
9:50pm  -   -   -  20 25 mph 1024.1mb 59f 58f
8:50pm 7ft 11s 6s 22 27 mph 1024.1mb 59f 57f
7:50pm 7ft 6s 6s 22 27 mph 1024mb 59f 57f
6:50pm 7ft 12s 6s 25 29 mph 1023.7mb 59f 57f
5:50pm  -   -   -  22 27 mph 1023.3mb 59f 57f
4:50pm 8ft 6s 6s 22 27 mph 1023.1mb 59f 57f
3:50pm  -   -   -  25 29 mph 1023mb 59f 57f
2:50pm 9ft 11s 6s 20 25 mph 1022.9mb 59f 56f
1:50pm 9ft 12s 6s 22 27 mph 1023.1mb 59f 56f
12:50pm 9ft 12s 6s 22 27 mph 1023.8mb 59f 56f
11:50am 10ft 8s 6s 27 31 mph 1023.9mb 59f 56f
10:50am 10ft 12s 6s 22 27 mph 1024.8mb 58f 55f
9:50am 9ft 10s 6s 25 29 mph 1025.2mb 59f 56f